QPF
0.03 0.03 0.03 0.03 0.03 0.04 0.04 0.03 0.03 0.03 0.02 0.01 0.01 0.00 0.00 0.00 0.00 0.00 0.00 0.00 0.00 0.00 0.00 0.00 0.00 0.00 0.01 0.01 0.01 0.01 0.01 0.01 0.01 0.01 0.01 0.02 0.02 0.02
0.02 0.02 0.02 0.02 0.02 0.02 0.02 0.03 0.03 0.02 0.02 0.01 0.01 0.01 0.01 0.00 0.00 0.00 0.00 0.00 0.00 0.00 0.00 0.00 0.01 0.01 0.01 0.01 0.01 0.01 0.01 0.01 0.01 0.01 0.01 0.02 0.02 0.02
0.02 0.02 0.02 0.02 0.02 0.02 0.02 0.02 0.02 0.02 0.02 0.01 0.01 0.01 0.01 0.01 0.01 0.00 0.00 0.00 0.00 0.00 0.01 0.01 0.01 0.01 0.01 0.01 0.01 0.01 0.01 0.01 0.01 0.01 0.02 0.02 0.02 0.02
0.02 0.02 0.02 0.02 0.03 0.03 0.02 0.02 0.02 0.02 0.02 0.02 0.02 0.01 0.01 0.01 0.01 0.01 0.01 0.00 0.01 0.01 0.01 0.01 0.01 0.01 0.01 0.02 0.02 0.01 0.01 0.01 0.01 0.02 0.02 0.02 0.02 0.02
0.02 0.02 0.02 0.02 0.02 0.03 0.03 0.02 0.02 0.02 0.02 0.02 0.02 0.02 0.02 0.01 0.01 0.01 0.01 0.01 0.01 0.01 0.01 0.01 0.01 0.02 0.02 0.02 0.02 0.01 0.01 0.01 0.02 0.01 0.01 0.01 0.01 0.02
0.03 0.03 0.02 0.02 0.02 0.02 0.03 0.03 0.03 0.03 0.03 0.03 0.03 0.02 0.02 0.02 0.01 0.01 0.01 0.01 0.01 0.01 0.01 0.01 0.01 0.01 0.01 0.02 0.02 0.01 0.01 0.01 0.01 0.01 0.01 0.01 0.01 0.01
0.04 0.04 0.04 0.04 0.04 0.04 0.04 0.04 0.04 0.04 0.04 0.04 0.04 0.03 0.03 0.02 0.02 0.01 0.01 0.01 0.01 0.01 0.01 0.01 0.01 0.01 0.01 0.01 0.01 0.01 0.01 0.01 0.01 0.01 0.01 0.01 0.01 0.01
0.05 0.05 0.05 0.05 0.05 0.04 0.04 0.04 0.04 0.04 0.04 0.03 0.03 0.03 0.02 0.02 0.02 0.01 0.01 0.01 0.01 0.01 0.01 0.01 0.01 0.01 0.01 0.01 0.01 0.01 0.01 0.01 0.01 0.01 0.01 0.01 0.01 0.01
0.05 0.05 0.04 0.03 0.03 0.02 0.02 0.02 0.02 0.03 0.04 0.03 0.03 0.02 0.02 0.02 0.02 0.02 0.02 0.02 0.01 0.01 0.02 0.02 0.01 0.01 0.01 0.01 0.01 0.01 0.00 0.00 0.01 0.01 0.01 0.01 0.01 0.01
0.04 0.04 0.03 0.02 0.02 0.02 0.01 0.01 0.01 0.02 0.03 0.02 0.03 0.03 0.03 0.03 0.03 0.03 0.03 0.03 0.03 0.02 0.02 0.02 0.02 0.01 0.01 0.01 0.01 0.01 0.01 0.01 0.01 0.01 0.01 0.01 0.01 0.02
0.03 0.02 0.02 0.01 0.01 0.01 0.01 0.01 0.02 0.02 0.03 0.02 0.02 0.03 0.04 0.04 0.04 0.04 0.05 0.05 0.04 0.03 0.03 0.03 0.02 0.02 0.02 0.01 0.01 0.01 0.01 0.01 0.01 0.01 0.01 0.01 0.01 0.01
0.02 0.01 0.01 0.01 0.02 0.01 0.01 0.01 0.02 0.03 0.03 0.03 0.03 0.03 0.03 0.03 0.04 0.04 0.04 0.05 0.05 0.04 0.03 0.03 0.03 0.03 0.03 0.01 0.01 0.01 0.01 0.01 0.01 0.02 0.02 0.01 0.01 0.01
0.01 0.01 0.01 0.01 0.02 0.02 0.02 0.02 0.02 0.03 0.03 0.03 0.03 0.03 0.03 0.03 0.02 0.03 0.03 0.04 0.04 0.04 0.03 0.04 0.04 0.03 0.03 0.02 0.01 0.00 0.00 0.01 0.01 0.01 0.01 0.01 0.02 0.02
0.01 0.01 0.01 0.01 0.02 0.02 0.02 0.02 0.02 0.02 0.02 0.02 0.02 0.02 0.02 0.03 0.03 0.03 0.03 0.03 0.03 0.03 0.03 0.03 0.04 0.04 0.04 0.03 0.02 0.01 0.00 0.00 0.01 0.01 0.01 0.01 0.01 0.01
0.02 0.02 0.02 0.02 0.02 0.02 0.02 0.02 0.01 0.01 0.01 0.01 0.02 0.02 0.02 0.02 0.03 0.03 0.03 0.03 0.03 0.03 0.03 0.03 0.03 0.03 0.04 0.04 0.03 0.01 0.01 0.01 0.01 0.01 0.01 0.01 0.01 0.01
0.02 0.02 0.02 0.02 0.02 0.02 0.02 0.02 0.01 0.01 0.01 0.01 0.01 0.02 0.02 0.02 0.02 0.03 0.03 0.03 0.03 0.02 0.02 0.02 0.02 0.03 0.03 0.03 0.02 0.02 0.02 0.02 0.01 0.01 0.02 0.02 0.02 0.02
0.02 0.02 0.02 0.02 0.02 0.02 0.02 0.01 0.01 0.01 0.01 0.01 0.01 0.01 0.02 0.02 0.02 0.02 0.02 0.02 0.03 0.03 0.02 0.02 0.02 0.02 0.02 0.03 0.03 0.02 0.02 0.02 0.02 0.03 0.03 0.03 0.03 0.02
0.02 0.02 0.02 0.02 0.02 0.02 0.01 0.01 0.01 0.01 0.01 0.01 0.01 0.01 0.01 0.01 0.01 0.02 0.02 0.02 0.02 0.02 0.02 0.02 0.01 0.01 0.02 0.02 0.02 0.03 0.02 0.02 0.02 0.03 0.04 0.04 0.03 0.02
0.02 0.02 0.02 0.02 0.01 0.01 0.01 0.01 0.01 0.01 0.01 0.01 0.01 0.01 0.01 0.01 0.01 0.01 0.01 0.01 0.01 0.01 0.01 0.01 0.01 0.02 0.03 0.02 0.02 0.02 0.03 0.03 0.02 0.03 0.03 0.04 0.04 0.03
0.02 0.01 0.01 0.01 0.01 0.01 0.01 0.01 0.01 0.02 0.02 0.01 0.01 0.01 0.01 0.02 0.02 0.01 0.01 0.01 0.01 0.01 0.01 0.01 0.01 0.02 0.03 0.03 0.03 0.02 0.02 0.03 0.03 0.03 0.03 0.03 0.03 0.03
0.01 0.02 0.02 0.02 0.02 0.02 0.02 0.02 0.02 0.02 0.02 0.02 0.02 0.02 0.02 0.02 0.02 0.02 0.02 0.02 0.01 0.01 0.01 0.01 0.01 0.01 0.02 0.02 0.02 0.02 0.02 0.02 0.03 0.03 0.02 0.02 0.02 0.02
0.01 0.01 0.02 0.02 0.02 0.02 0.02 0.02 0.02 0.02 0.02 0.02 0.02 0.02 0.02 0.02 0.02 0.02 0.02 0.02 0.02 0.01 0.01 0.01 0.01 0.01 0.01 0.02 0.02 0.02 0.02 0.02 0.02 0.03 0.03 0.03 0.03 0.03
0.01 0.02 0.02 0.02 0.03 0.03 0.02 0.02 0.01 0.01 0.01 0.01 0.01 0.02 0.02 0.02 0.02 0.02 0.02 0.01 0.01 0.01 0.02 0.01 0.01 0.01 0.01 0.01 0.02 0.02 0.02 0.02 0.01 0.02 0.02 0.02 0.02 0.02
MSLP
1019.33 1019.38 1019.40 1019.40 1019.37 1019.32 1019.25 1019.18 1019.13 1019.11 1019.13 1019.21 1019.31 1019.44 1019.56 1019.65 1019.69 1019.67 1019.59 1019.45 1019.28 1019.12 1018.98 1018.89 1018.87 1018.93 1019.07 1019.25 1019.48 1019.72 1019.95 1020.15 1020.31 1020.41 1020.45 1020.42 1020.33 1020.18
1019.27 1019.35 1019.41 1019.45 1019.45 1019.44 1019.40 1019.35 1019.32 1019.31 1019.35 1019.42 1019.53 1019.66 1019.78 1019.86 1019.90 1019.88 1019.79 1019.65 1019.47 1019.29 1019.13 1019.02 1018.98 1019.01 1019.10 1019.26 1019.46 1019.68 1019.90 1020.10 1020.27 1020.40 1020.47 1020.48 1020.44 1020.33
1019.15 1019.27 1019.37 1019.44 1019.49 1019.52 1019.52 1019.51 1019.50 1019.52 1019.56 1019.64 1019.74 1019.85 1019.96 1020.03 1020.05 1020.01 1019.92 1019.77 1019.59 1019.41 1019.24 1019.12 1019.06 1019.07 1019.14 1019.27 1019.44 1019.64 1019.85 1020.05 1020.23 1020.38 1020.49 1020.54 1020.54 1020.48
1019.02 1019.17 1019.31 1019.43 1019.52 1019.59 1019.64 1019.67 1019.70 1019.74 1019.79 1019.86 1019.95 1020.04 1020.12 1020.16 1020.16 1020.11 1020.00 1019.84 1019.66 1019.48 1019.32 1019.19 1019.12 1019.11 1019.15 1019.26 1019.41 1019.59 1019.79 1019.99 1020.18 1020.35 1020.49 1020.59 1020.63 1020.62
1018.93 1019.10 1019.28 1019.44 1019.57 1019.69 1019.78 1019.85 1019.91 1019.97 1020.03 1020.10 1020.18 1020.24 1020.29 1020.30 1020.27 1020.19 1020.06 1019.90 1019.71 1019.53 1019.36 1019.23 1019.15 1019.12 1019.14 1019.22 1019.35 1019.51 1019.69 1019.89 1020.09 1020.29 1020.46 1020.60 1020.69 1020.73
1018.91 1019.11 1019.30 1019.49 1019.66 1019.81 1019.94 1020.05 1020.13 1020.21 1020.28 1020.35 1020.41 1020.45 1020.46 1020.44 1020.38 1020.28 1020.13 1019.96 1019.77 1019.58 1019.41 1019.27 1019.17 1019.12 1019.11 1019.16 1019.26 1019.39 1019.56 1019.76 1019.97 1020.18 1020.39 1020.56 1020.70 1020.78
1018.98 1019.18 1019.39 1019.59 1019.79 1019.96 1020.10 1020.23 1020.34 1020.43 1020.51 1020.57 1020.62 1020.64 1020.64 1020.59 1020.51 1020.39 1020.23 1020.05 1019.85 1019.65 1019.47 1019.32 1019.20 1019.12 1019.08 1019.09 1019.15 1019.26 1019.41 1019.59 1019.81 1020.04 1020.26 1020.48 1020.65 1020.77
1019.10 1019.31 1019.52 1019.72 1019.92 1020.09 1020.25 1020.38 1020.50 1020.60 1020.68 1020.74 1020.79 1020.80 1020.78 1020.73 1020.64 1020.51 1020.35 1020.16 1019.96 1019.76 1019.56 1019.39 1019.25 1019.13 1019.06 1019.04 1019.06 1019.13 1019.26 1019.42 1019.63 1019.87 1020.12 1020.36 1020.57 1020.73
1019.24 1019.45 1019.65 1019.85 1020.03 1020.19 1020.34 1020.47 1020.59 1020.69 1020.77 1020.84 1020.88 1020.89 1020.88 1020.83 1020.74 1020.61 1020.45 1020.27 1020.08 1019.87 1019.67 1019.49 1019.32 1019.18 1019.08 1019.01 1019.00 1019.03 1019.13 1019.28 1019.48 1019.72 1019.97 1020.23 1020.47 1020.66
1019.37 1019.57 1019.76 1019.93 1020.09 1020.24 1020.37 1020.49 1020.60 1020.69 1020.77 1020.84 1020.88 1020.90 1020.90 1020.85 1020.78 1020.67 1020.52 1020.36 1020.17 1019.98 1019.78 1019.59 1019.41 1019.25 1019.12 1019.03 1018.98 1018.99 1019.05 1019.18 1019.37 1019.60 1019.86 1020.14 1020.39 1020.61
1019.45 1019.65 1019.82 1019.98 1020.12 1020.24 1020.35 1020.45 1020.54 1020.62 1020.69 1020.76 1020.80 1020.83 1020.83 1020.80 1020.73 1020.64 1020.52 1020.37 1020.21 1020.03 1019.85 1019.67 1019.49 1019.33 1019.18 1019.07 1019.01 1018.99 1019.04 1019.15 1019.32 1019.54 1019.80 1020.08 1020.35 1020.59
1019.50 1019.69 1019.85 1020.00 1020.12 1020.22 1020.31 1020.39 1020.46 1020.53 1020.58 1020.64 1020.67 1020.69 1020.69 1020.66 1020.61 1020.52 1020.42 1020.29 1020.15 1020.00 1019.84 1019.68 1019.52 1019.37 1019.23 1019.12 1019.05 1019.02 1019.06 1019.15 1019.30 1019.51 1019.77 1020.04 1020.32 1020.57
1019.51 1019.70 1019.87 1020.02 1020.13 1020.23 1020.30 1020.36 1020.41 1020.46 1020.49 1020.52 1020.53 1020.53 1020.51 1020.47 1020.40 1020.32 1020.22 1020.10 1019.98 1019.85 1019.72 1019.59 1019.46 1019.34 1019.23 1019.14 1019.07 1019.05 1019.08 1019.16 1019.30 1019.49 1019.73 1020.00 1020.28 1020.54
1019.51 1019.73 1019.92 1020.07 1020.20 1020.29 1020.36 1020.41 1020.44 1020.46 1020.47 1020.46 1020.44 1020.39 1020.33 1020.25 1020.15 1020.04 1019.93 1019.81 1019.69 1019.58 1019.48 1019.38 1019.29 1019.21 1019.13 1019.07 1019.03 1019.02 1019.05 1019.13 1019.26 1019.43 1019.65 1019.91 1020.18 1020.45
1019.53 1019.79 1020.01 1020.19 1020.33 1020.44 1020.51 1020.56 1020.57 1020.56 1020.53 1020.48 1020.40 1020.30 1020.18 1020.04 1019.88 1019.72 1019.57 1019.42 1019.30 1019.19 1019.11 1019.04 1018.99 1018.95 1018.92 1018.90 1018.89 1018.90 1018.94 1019.01 1019.13 1019.29 1019.49 1019.72 1019.98 1020.25
1019.59 1019.88 1020.14 1020.36 1020.54 1020.66 1020.75 1020.79 1020.79 1020.76 1020.69 1020.58 1020.44 1020.27 1020.07 1019.85 1019.62 1019.39 1019.17 1018.98 1018.82 1018.70 1018.62 1018.57 1018.55 1018.55 1018.57 1018.58 1018.61 1018.65 1018.71 1018.78 1018.89 1019.03 1019.21 1019.43 1019.68 1019.94
1019.67 1020.02 1020.32 1020.58 1020.78 1020.93 1021.02 1021.07 1021.06 1021.01 1020.90 1020.74 1020.54 1020.29 1020.01 1019.70 1019.37 1019.06 1018.76 1018.50 1018.29 1018.14 1018.04 1018.00 1018.00 1018.03 1018.08 1018.14 1018.21 1018.28 1018.36 1018.45 1018.55 1018.69 1018.85 1019.05 1019.28 1019.53
1019.79 1020.17 1020.51 1020.79 1021.02 1021.19 1021.29 1021.34 1021.32 1021.25 1021.11 1020.91 1020.65 1020.33 1019.97 1019.57 1019.16 1018.74 1018.36 1018.01 1017.74 1017.53 1017.40 1017.34 1017.34 1017.39 1017.48 1017.58 1017.69 1017.81 1017.92 1018.03 1018.15 1018.28 1018.44 1018.63 1018.85 1019.09
1019.90 1020.31 1020.67 1020.97 1021.21 1021.38 1021.49 1021.54 1021.52 1021.43 1021.27 1021.04 1020.74 1020.36 1019.93 1019.45 1018.94 1018.44 1017.96 1017.53 1017.17 1016.90 1016.72 1016.63 1016.62 1016.68 1016.80 1016.94 1017.10 1017.26 1017.42 1017.57 1017.73 1017.88 1018.05 1018.24 1018.45 1018.70
1020.03 1020.44 1020.80 1021.09 1021.33 1021.49 1021.60 1021.64 1021.61 1021.52 1021.35 1021.10 1020.77 1020.35 1019.86 1019.32 1018.74 1018.15 1017.57 1017.05 1016.61 1016.26 1016.02 1015.89 1015.86 1015.93 1016.06 1016.25 1016.46 1016.69 1016.91 1017.12 1017.33 1017.53 1017.73 1017.94 1018.16 1018.41
1020.14 1020.54 1020.88 1021.15 1021.36 1021.51 1021.60 1021.64 1021.61 1021.51 1021.34 1021.08 1020.73 1020.29 1019.77 1019.17 1018.53 1017.86 1017.21 1016.60 1016.07 1015.64 1015.33 1015.15 1015.10 1015.16 1015.31 1015.54 1015.81 1016.11 1016.41 1016.70 1016.98 1017.24 1017.50 1017.74 1017.99 1018.26
1020.25 1020.62 1020.93 1021.17 1021.35 1021.47 1021.54 1021.56 1021.53 1021.43 1021.26 1021.01 1020.65 1020.20 1019.65 1019.02 1018.33 1017.60 1016.87 1016.18 1015.56 1015.06 1014.68 1014.44 1014.35 1014.40 1014.57 1014.83 1015.16 1015.53 1015.92 1016.30 1016.67 1017.01 1017.33 1017.64 1017.93 1018.22
1020.37 1020.70 1020.97 1021.17 1021.31 1021.41 1021.46 1021.47 1021.43 1021.33 1021.17 1020.92 1020.57 1020.12 1019.55 1018.90 1018.16 1017.38 1016.59 1015.82 1015.13 1014.55 1014.10 1013.80 1013.67 1013.70 1013.87 1014.15 1014.53 1014.97 1015.44 1015.91 1016.36 1016.79 1017.19 1017.56 1017.90 1018.22
Thickness
5509 5510 5510 5511 5511 5511 5512 5512 5510 5511 5513 5513 5512 5514 5514 5514 5514 5513 5512 5511 5510 5510 5509 5507 5507 5506 5506 5505 5505 5505 5505 5506 5506 5506 5506 5507 5507 5508
5498 5498 5499 5500 5499 5500 5500 5500 5500 5500 5500 5502 5501 5501 5502 5502 5502 5501 5500 5500 5500 5499 5497 5496 5496 5495 5495 5494 5494 5494 5494 5494 5494 5494 5494 5494 5495 5495
5487 5488 5489 5488 5487 5488 5488 5489 5489 5488 5487 5489 5488 5489 5489 5489 5489 5488 5488 5488 5487 5487 5486 5485 5485 5484 5484 5483 5483 5483 5483 5483 5482 5482 5482 5482 5483 5483
5477 5477 5478 5478 5477 5477 5476 5477 5477 5477 5475 5476 5475 5475 5475 5476 5476 5476 5475 5475 5475 5474 5474 5474 5473 5473 5473 5472 5472 5472 5471 5470 5470 5470 5470 5471 5471 5470
5466 5467 5467 5466 5466 5466 5465 5465 5465 5465 5464 5462 5463 5463 5462 5463 5462 5463 5462 5462 5462 5462 5463 5463 5462 5462 5462 5461 5461 5460 5459 5459 5459 5459 5458 5458 5458 5458
5454 5454 5455 5455 5455 5455 5454 5453 5453 5452 5451 5450 5450 5450 5450 5450 5449 5450 5450 5450 5450 5451 5451 5451 5451 5451 5451 5450 5450 5449 5449 5448 5448 5448 5448 5448 5447 5447
5441 5442 5443 5443 5443 5443 5443 5442 5442 5440 5439 5438 5438 5438 5438 5437 5437 5438 5438 5438 5438 5439 5439 5440 5440 5441 5440 5439 5438 5438 5437 5437 5437 5437 5437 5437 5437 5437
5429 5430 5430 5431 5431 5431 5431 5431 5431 5429 5429 5428 5427 5427 5427 5427 5426 5426 5425 5425 5427 5428 5426 5428 5428 5429 5429 5428 5427 5427 5426 5426 5427 5427 5427 5427 5428 5428
5417 5418 5418 5419 5419 5419 5419 5419 5418 5418 5418 5418 5418 5417 5417 5417 5415 5414 5414 5414 5416 5416 5415 5417 5417 5418 5418 5417 5416 5416 5416 5416 5416 5417 5417 5417 5418 5419
5406 5406 5407 5408 5408 5409 5409 5408 5407 5407 5407 5408 5409 5408 5407 5406 5405 5405 5404 5403 5404 5404 5403 5403 5405 5406 5408 5407 5406 5405 5405 5406 5406 5407 5407 5408 5408 5409
5395 5396 5396 5397 5399 5399 5398 5397 5397 5396 5397 5397 5398 5398 5397 5397 5396 5395 5394 5393 5393 5394 5392 5391 5393 5394 5395 5396 5395 5395 5394 5395 5396 5396 5397 5398 5399 5399
5386 5387 5388 5388 5389 5389 5388 5388 5387 5387 5387 5387 5387 5387 5387 5387 5387 5386 5385 5384 5384 5384 5383 5381 5381 5380 5383 5386 5385 5384 5384 5385 5386 5387 5388 5389 5389 5389
5377 5377 5378 5379 5380 5380 5380 5379 5379 5379 5378 5377 5377 5377 5377 5377 5377 5376 5376 5375 5375 5374 5374 5372 5371 5370 5369 5373 5375 5375 5375 5376 5377 5378 5379 5380 5380 5381
5369 5369 5370 5371 5371 5371 5371 5371 5371 5370 5368 5368 5367 5367 5367 5368 5367 5367 5367 5367 5367 5366 5366 5364 5362 5361 5361 5362 5365 5368 5368 5368 5369 5371 5372 5372 5373 5373
5361 5362 5363 5363 5363 5362 5362 5362 5361 5360 5359 5358 5358 5358 5358 5359 5359 5359 5359 5359 5359 5359 5358 5357 5356 5355 5355 5355 5357 5359 5361 5362 5363 5363 5365 5365 5366 5366
5354 5354 5354 5354 5354 5354 5353 5352 5351 5351 5350 5350 5349 5350 5350 5350 5351 5351 5351 5352 5352 5352 5351 5351 5350 5350 5350 5350 5351 5353 5353 5354 5356 5357 5358 5359 5360 5361
5347 5347 5346 5345 5345 5345 5344 5344 5343 5343 5342 5342 5342 5342 5343 5343 5344 5344 5344 5345 5344 5344 5345 5345 5345 5345 5345 5345 5346 5347 5348 5349 5349 5350 5352 5354 5356 5358
5341 5340 5339 5338 5338 5337 5337 5336 5336 5336 5335 5335 5335 5335 5336 5337 5337 5338 5338 5338 5338 5338 5338 5339 5340 5341 5342 5343 5343 5343 5343 5344 5345 5346 5347 5348 5352 5354
5335 5333 5332 5331 5331 5330 5330 5329 5329 5329 5329 5329 5329 5329 5330 5331 5331 5332 5332 5332 5332 5332 5332 5333 5334 5334 5336 5338 5339 5339 5338 5339 5340 5342 5343 5345 5346 5349
5327 5327 5326 5326 5325 5325 5324 5324 5323 5323 5323 5323 5324 5324 5324 5325 5325 5326 5326 5326 5327 5327 5328 5328 5328 5329 5330 5331 5332 5334 5335 5335 5336 5338 5340 5342 5343 5345
5320 5320 5320 5319 5319 5319 5319 5319 5318 5318 5318 5319 5319 5319 5319 5319 5320 5321 5321 5322 5323 5323 5323 5324 5325 5326 5326 5327 5328 5330 5332 5332 5333 5334 5336 5338 5340 5341
5314 5314 5314 5314 5314 5314 5314 5314 5314 5314 5314 5314 5315 5315 5315 5315 5316 5317 5317 5318 5319 5319 5320 5321 5322 5322 5323 5323 5324 5325 5327 5329 5331 5332 5334 5335 5334 5336
5308 5309 5310 5310 5310 5310 5311 5310 5310 5310 5310 5310 5310 5311 5311 5312 5312 5313 5314 5314 5315 5316 5317 5318 5318 5319 5319 5319 5320 5321 5323 5325 5327 5329 5332 5333 5333 5334